Weather History for Cape Girardeau, MO

Change the Weather History Date:

Friday, May 3, 2013

  Actual Average Record
Temperature  
Mean Temperature 49 °F 63 °F  
Max Temperature 55 °F 74 °F 85 °F (1965)
Min Temperature 42 °F 52 °F 34 °F (1971)
Degree Days  
Heating Degree Days 16 4  
Month to date heating degree days 16 12  
Since 1 July heating degree days 4282 4330  
Cooling Degree Days 0 2  
Month to date cooling degree days 3 6  
Year to date cooling degree days 28 37  
Moisture  
Dew Point 44 °F    
Average Humidity 93    
Maximum Humidity 96    
Minimum Humidity 89    
Precipitation  
Precipitation 1.65 in 0.20 in 1.93 in (1979)
Month to date precipitation 1.69 0.58  
Year to date precipitation 14.51 16.22  
Sea Level Pressure  
Sea Level Pressure 29.89 in    
Wind  
Wind Speed 8 mph (NW)    
Max Wind Speed 15 mph    
Max Gust Speed 18 mph    
Visibility 6 miles    
Events Rain    
T = Trace of Precipitation, MM = Missing Value Source: NWS Daily Summary

Daily Weather History Graph

Daily Weather History Graph

Search for Another Location

Airport:

Trip Planner

Search our weather history database for the weather conditions in past years. The results will help you decide how hot, cold, wet, or windy it might be!

Date:

Astronomy

May. 03, 2013 Rise Set
Actual Time 6:01 AM CDT 7:49 PM CDT
Civil Twilight 5:32 AM CDT 8:17 PM CDT
Nautical Twilight 4:58 AM CDT 8:52 PM CDT
Astronomical Twilight 4:22 AM CDT 9:28 PM CDT
Moon 2:17 AM CDT (5/3) 1:52 PM CDT (5/3)
Length of Visible Light 14h 45m
Length of Day
13h 48m
Last Quarter, 37% of the Moon is Illuminated
May 3
Last Quarter
May 9
New
May 17
First Quarter
May 24
Full
May 31
Last Quarter

Hourly Weather History & Observations

Time (CDT) Temp. Windchill Dew Point Humidity Pressure Visibility Wind Dir Wind Speed Gust Speed Precip Events Conditions
12:19 AM 55.4 °F - 53.6 °F 94% 30.04 in 5.0 mi North 8.1 mph - 0.00 in Rain Light Rain
12:53 AM 55.0 °F - 53.1 °F 93% 30.02 in 7.0 mi North 9.2 mph - 0.00 in   Overcast
1:53 AM 54.0 °F - 52.0 °F 93% 30.01 in 7.0 mi North 11.5 mph - 0.01 in   Overcast
2:53 AM 54.0 °F - 52.0 °F 93% 29.98 in 6.0 mi North 12.7 mph - 0.00 in Rain Light Rain
3:53 AM 53.1 °F - 51.1 °F 93% 29.96 in 4.0 mi North 10.4 mph - 0.00 in Rain Light Rain
4:53 AM 51.1 °F - 48.9 °F 92% 29.95 in 6.0 mi NNW 9.2 mph - 0.00 in Rain Light Rain
5:14 AM 51.8 °F - 48.2 °F 88% 29.95 in 2.0 mi North 8.1 mph - 0.08 in Rain Heavy Rain
5:27 AM 50.0 °F - 48.2 °F 94% 29.95 in 4.0 mi North 9.2 mph 17.3 mph 0.13 in Rain Rain
5:53 AM 50.0 °F - 48.0 °F 93% 29.94 in 2.5 mi North 8.1 mph - 0.26 in Rain Heavy Rain
6:01 AM 50.0 °F - 48.2 °F 94% 29.95 in 4.0 mi North 9.2 mph - 0.02 in Rain Rain
6:53 AM 48.9 °F - 46.9 °F 93% 29.94 in 7.0 mi North 8.1 mph - 0.09 in Rain Light Rain
7:53 AM 48.9 °F - 46.9 °F 93% 29.93 in 10.0 mi North 4.6 mph - 0.00 in   Overcast
8:53 AM 48.9 °F - 46.9 °F 93% 29.92 in 6.0 mi NNW 8.1 mph - 0.01 in Rain Light Rain
9:53 AM 46.9 °F - 45.0 °F 93% 29.91 in 10.0 mi North 8.1 mph - 0.05 in Rain Light Rain
10:53 AM 46.9 °F - 45.0 °F 93% 29.90 in 10.0 mi North 8.1 mph - 0.00 in   Overcast
11:53 AM 46.9 °F - 46.0 °F 97% 29.88 in 2.5 mi NNW 8.1 mph - 0.07 in Rain Heavy Rain
12:23 PM 46.4 °F 42.4 °F 44.6 °F 93% 29.87 in 6.0 mi NW 8.1 mph - 0.06 in Rain Light Rain
12:40 PM 46.4 °F 41.9 °F 44.6 °F 93% 29.88 in 1.8 mi WNW 9.2 mph - 0.10 in Rain Rain
12:49 PM 46.4 °F 42.9 °F 44.6 °F 93% 29.87 in 2.5 mi NW 6.9 mph - 0.12 in Rain Rain
12:53 PM 46.0 °F 42.5 °F 45.0 °F 96% 29.87 in 2.0 mi NW 6.9 mph - 0.15 in Rain Rain
1:00 PM 46.4 °F 42.9 °F 44.6 °F 93% 29.86 in 1.2 mi NNW 6.9 mph - 0.04 in Rain Rain
1:08 PM 46.4 °F 42.9 °F 44.6 °F 93% 29.86 in 3.0 mi NW 6.9 mph - 0.05 in Rain Light Rain
1:32 PM 46.4 °F 42.4 °F 44.6 °F 93% 29.85 in 2.5 mi North 8.1 mph - 0.07 in Rain Rain
1:42 PM 46.4 °F 42.9 °F 44.6 °F 93% 29.86 in 3.0 mi NW 6.9 mph - 0.09 in Rain Rain
1:53 PM 46.0 °F 41.0 °F 45.0 °F 96% 29.87 in 3.0 mi West 10.4 mph - 0.12 in Rain Rain
2:11 PM 46.4 °F 42.4 °F 44.6 °F 93% 29.86 in 2.5 mi NW 8.1 mph - 0.03 in Rain Rain
2:21 PM 46.4 °F 42.4 °F 44.6 °F 93% 29.86 in 3.0 mi NW 8.1 mph - 0.05 in Rain Rain
2:38 PM 46.4 °F 42.4 °F 44.6 °F 93% 29.85 in 2.0 mi North 8.1 mph - 0.09 in Rain Rain
2:46 PM 46.4 °F 42.4 °F 44.6 °F 93% 29.84 in 1.2 mi North 8.1 mph - 0.13 in Rain Heavy Rain
2:53 PM 46.0 °F 41.9 °F 44.1 °F 93% 29.84 in 3.0 mi North 8.1 mph - 0.14 in Rain Rain
3:29 PM 46.4 °F 42.4 °F 44.6 °F 93% 29.83 in 6.0 mi North 8.1 mph - 0.04 in Rain Light Rain
3:53 PM 46.0 °F 43.1 °F 44.1 °F 93% 29.83 in 5.0 mi NW 5.8 mph - 0.07 in Rain Rain
4:53 PM 45.0 °F 39.3 °F 42.1 °F 90% 29.85 in 4.0 mi West 11.5 mph - 0.15 in Rain Heavy Rain
4:59 PM 44.6 °F 38.8 °F 42.8 °F 93% 29.84 in 3.0 mi West 11.5 mph - 0.02 in Rain Heavy Rain
5:10 PM 44.6 °F 39.2 °F 42.8 °F 93% 29.84 in 7.0 mi WNW 10.4 mph - 0.04 in Rain Rain
5:12 PM 44.6 °F 38.8 °F 42.8 °F 93% 29.84 in 6.0 mi WNW 11.5 mph - 0.04 in Rain Rain
5:27 PM 44.6 °F 39.2 °F 42.8 °F 93% 29.83 in 2.5 mi NW 10.4 mph - 0.10 in Rain Rain
5:38 PM 44.6 °F 39.7 °F 42.8 °F 93% 29.85 in 3.0 mi WNW 9.2 mph - 0.14 in Rain Rain
5:53 PM 44.1 °F 40.1 °F 42.1 °F 93% 29.86 in 3.0 mi WNW 6.9 mph - 0.21 in Rain Heavy Rain
6:01 PM 44.6 °F 40.2 °F 42.8 °F 93% 29.86 in 2.5 mi West 8.1 mph - 0.04 in Rain Heavy Rain
6:06 PM 44.6 °F 40.7 °F 42.8 °F 93% 29.85 in 3.0 mi WNW 6.9 mph - 0.06 in Rain Heavy Rain
6:24 PM 44.6 °F 40.2 °F 42.8 °F 93% 29.85 in 3.0 mi West 8.1 mph - 0.12 in Rain Rain
6:53 PM 44.1 °F 40.1 °F 42.1 °F 93% 29.87 in 4.0 mi West 6.9 mph - 0.20 in Rain Rain
7:18 PM 42.8 °F 36.2 °F 41.0 °F 93% 29.87 in 10.0 mi West 12.7 mph - 0.02 in Rain Light Rain
7:35 PM 42.8 °F 36.6 °F 41.0 °F 93% 29.90 in 9.0 mi WSW 11.5 mph - 0.03 in Rain Light Rain
7:51 PM 42.8 °F 38.0 °F 39.2 °F 87% 29.89 in 9.0 mi West 8.1 mph - 0.04 in Rain Light Rain
7:53 PM 43.0 °F 37.7 °F 41.0 °F 93% 29.89 in 10.0 mi West 9.2 mph - 0.04 in Rain Light Rain
8:03 PM 42.8 °F 37.5 °F 41.0 °F 93% 29.88 in 10.0 mi West 9.2 mph - 0.00 in   Overcast
8:34 PM 42.8 °F 38.0 °F 41.0 °F 93% 29.90 in 10.0 mi West 8.1 mph - 0.03 in Rain Light Rain
8:53 PM 43.0 °F 40.3 °F 41.0 °F 93% 29.89 in 10.0 mi WSW 4.6 mph - 0.03 in   Overcast
9:08 PM 42.8 °F 38.6 °F 41.0 °F 93% 29.90 in 7.0 mi WSW 6.9 mph - 0.00 in Rain Light Rain
9:23 PM 42.8 °F 37.5 °F 41.0 °F 93% 29.90 in 10.0 mi SW 9.2 mph - 0.00 in   Overcast
9:49 PM 42.8 °F 38.0 °F 41.0 °F 93% 29.93 in 10.0 mi SSW 8.1 mph - 0.00 in   Overcast
9:53 PM 43.0 °F 37.2 °F 41.0 °F 93% 29.93 in 10.0 mi SW 10.4 mph - 0.00 in   Overcast
10:29 PM 42.8 °F 37.0 °F 39.2 °F 87% 29.93 in 7.0 mi SW 10.4 mph - 0.01 in Rain Light Rain
10:53 PM 42.1 °F 37.1 °F 39.9 °F 92% 29.92 in 10.0 mi SW 8.1 mph - 0.01 in Rain Light Rain
11:34 PM 42.8 °F 38.0 °F 39.2 °F 87% 29.91 in 10.0 mi SW 8.1 mph - 0.00 in Rain Light Rain
11:53 PM 42.1 °F 38.4 °F 39.9 °F 92% 29.91 in 7.0 mi SW 5.8 mph - 0.02 in Rain Light Rain